Weather History for Poplar Bluff, MO

Change the Weather History Date:

Wednesday, December 19, 2012

  Actual Average Record
Temperature  
Mean Temperature 48 °F -  
Max Temperature 62 °F 47 °F 68 °F (1941)
Min Temperature 35 °F 26 °F 2 °F (1945)
Degree Days  
Heating Degree Days 17    
Moisture  
Dew Point 45 °F    
Average Humidity 79    
Maximum Humidity 96    
Minimum Humidity 60    
Precipitation  
Precipitation 0.00 in - - ()
Sea Level Pressure  
Sea Level Pressure 29.83 in    
Wind  
Wind Speed 5 mph (ESE)    
Max Wind Speed 23 mph    
Max Gust Speed 31 mph    
Visibility 9 miles    
Events      
Averages and records for this station are not official NWS values.
T = Trace of Precipitation, MM = Missing Value Source: NWS Daily Summary

Daily Weather History Graph

Daily Weather History Graph

Search for Another Location

Airport:

Trip Planner

Search our weather history database for the weather conditions in past years. The results will help you decide how hot, cold, wet, or windy it might be!

Date:

Astronomy

Dec. 19, 2012 Rise Set
Actual Time 7:09 AM CST 4:48 PM CST
Civil Twilight 6:40 AM CST 5:16 PM CST
Nautical Twilight 6:07 AM CST 5:49 PM CST
Astronomical Twilight 5:36 AM CST 6:21 PM CST
Moon 11:28 AM CST (12/19) No Moon Set
Length of Visible Light 10h 36m
Length of Day
9h 38m
Waxing Crescent, 45% of the Moon is Illuminated
Dec 19
Waxing Crescent
Dec 19
First Quarter
Dec 28
Full
Jan 4
Last Quarter
Jan 11
New

Hourly Weather History & Observations

Time (CST) Temp. Windchill Dew Point Humidity Pressure Visibility Wind Dir Wind Speed Gust Speed Precip Events Conditions
12:53 AM 36.0 °F - 34.0 °F 93% 29.89 in 9.0 mi Calm Calm - N/A   Clear
1:53 AM 35.1 °F 32.2 °F 32.0 °F 89% 29.91 in 10.0 mi NNW 3.5 mph - N/A   Clear
2:53 AM 36.0 °F 33.3 °F 34.0 °F 93% 29.91 in 8.0 mi North 3.5 mph - N/A   Clear
3:53 AM 35.1 °F - 34.0 °F 96% 29.92 in 5.0 mi Calm Calm - N/A   Clear
4:53 AM 35.1 °F 30.1 °F 33.1 °F 92% 29.94 in 6.0 mi North 5.8 mph - N/A   Clear
6:53 AM 41.0 °F 35.8 °F 37.0 °F 86% 29.95 in 8.0 mi NE 8.1 mph - N/A   Clear
7:53 AM 42.1 °F 38.4 °F 37.9 °F 85% 29.95 in 6.0 mi NE 5.8 mph - N/A   Clear
8:53 AM 44.1 °F 40.8 °F 39.9 °F 85% 29.96 in 5.0 mi ENE 5.8 mph - N/A   Clear
9:53 AM 48.9 °F - 43.0 °F 80% 29.94 in 8.0 mi East 8.1 mph - N/A   Clear
10:53 AM 52.0 °F - 44.1 °F 74% 29.92 in 10.0 mi ESE 8.1 mph - N/A   Clear
11:19 AM 53.6 °F - 44.6 °F 72% 29.90 in 10.0 mi ESE 5.8 mph - N/A   Mostly Cloudy
11:53 AM 54.0 °F - 46.0 °F 75% 29.89 in 10.0 mi East 4.6 mph - N/A   Overcast
12:53 PM 55.0 °F - 46.9 °F 74% 29.86 in 10.0 mi ESE 5.8 mph - N/A   Overcast
1:35 PM 55.4 °F - 48.2 °F 77% 29.84 in 10.0 mi SSE 6.9 mph - N/A   Overcast
1:53 PM 55.9 °F - 48.9 °F 77% 29.83 in 10.0 mi ESE 5.8 mph - N/A   Overcast
2:53 PM 57.0 °F - 51.1 °F 81% 29.82 in 10.0 mi ESE 4.6 mph - N/A   Overcast
3:53 PM 57.9 °F - 53.1 °F 84% 29.81 in 10.0 mi SE 5.8 mph - N/A   Overcast
4:53 PM 57.9 °F - 52.0 °F 81% 29.79 in 10.0 mi East 3.5 mph - N/A   Mostly Cloudy
5:08 PM 57.2 °F - 51.8 °F 82% 29.79 in 10.0 mi Calm Calm - N/A   Mostly Cloudy
5:53 PM 57.9 °F - 53.1 °F 84% 29.78 in 10.0 mi East 4.6 mph - N/A   Mostly Cloudy
6:53 PM 57.9 °F - 53.1 °F 84% 29.75 in 10.0 mi SE 4.6 mph - N/A   Mostly Cloudy
7:53 PM 60.1 °F - 51.1 °F 72% 29.73 in 10.0 mi SSE 9.2 mph - N/A   Overcast
8:53 PM 61.0 °F - 46.9 °F 60% 29.70 in 10.0 mi SSE 8.1 mph - N/A   Overcast
9:53 PM 60.1 °F - 46.9 °F 62% 29.66 in 10.0 mi SSE 4.6 mph - N/A   Overcast
10:53 PM 61.0 °F - 48.0 °F 62% 29.61 in 10.0 mi SSE 19.6 mph 25.3 mph N/A   Overcast
11:53 PM 62.1 °F - 48.0 °F 60% 29.54 in 10.0 mi SSE 23.0 mph 31.1 mph N/A   Overcast